This demonstration page uses our WeatherBlox Daily Observations layout. Learn more.

Hourly Observations for May 20, 2016

Temp ( °F °C ) Dew Point ( °F °C ) Humidity (%) Winds ( mph kmh ) Pressure ( in mb ) Visibility ( mi km ) Precip ( " mm )
12:15 am 00:15 Clear 52 11 52 11 100 100 Calm 30.24 1024 10 16.0934 0 0
12:35 am 00:35 Clear 54 12 52 11 94 94 Calm 30.21 1023 10 16.0934 0 0
12:55 am 00:55 Clear 52 11 50 10 94 94 Calm 30.24 1024 10 16.0934 0 0
1:15 am 01:15 Clear 50 10 50 10 100 100 Calm 30.21 1023 10 16.0934 0 0
1:35 am 01:35 Clear 50 10 50 10 100 100 Calm 30.21 1023 10 16.0934 0 0
1:55 am 01:55 Clear 52 11 50 10 94 94 Calm 30.24 1024 10 16.0934 0 0
2:15 am 02:15 Clear 50 10 50 10 100 100 Calm 30.24 1024 10 16.0934 0 0
2:35 am 02:35 Clear 50 10 50 10 100 100 NW 3 6 30.24 1024 10 16.0934 0 0
2:55 am 02:55 Clear 50 10 50 10 100 100 N 3 6 30.24 1024 10 16.0934 0 0
3:15 am 03:15 Clear 50 10 48 9 94 94 N 3 6 30.24 1024 10 16.0934 0 0
3:35 am 03:35 Clear 50 10 48 9 94 94 Calm 30.24 1024 10 16.0934 0 0
3:55 am 03:55 Clear 48 9 48 9 100 100 N 3 6 30.24 1024 10 16.0934 0 0
4:15 am 04:15 Clear 48 9 48 9 100 100 N 5 7 30.24 1024 10 16.0934 0 0
4:35 am 04:35 Clear 46 8 46 8 100 100 N 3 6 30.24 1024 10 16.0934 0 0
4:55 am 04:55 Clear 46 8 46 8 100 100 N 3 6 30.24 1024 10 16.0934 0 0
5:15 am 05:15 Clear 46 8 46 8 100 100 Calm 30.27 1025 10 16.0934 0 0
5:35 am 05:35 Clear 46 8 46 8 100 100 Calm 30.27 1025 10 16.0934 0 0
5:55 am 05:55 Sunny 46 8 46 8 100 100 Calm 30.27 1025 10 16.0934 0 0
6:15 am 06:15 Sunny 46 8 46 8 100 100 Calm 30.3 1026 10 16.0934 0 0
6:35 am 06:35 Sunny 48 9 48 9 100 100 Calm 30.3 1026 10 16.0934 0 0
6:55 am 06:55 Sunny 50 10 50 10 100 100 N 3 6 30.3 1026 10 16.0934 0 0
7:15 am 07:15 Sunny 54 12 50 10 88 88 N 6 9 30.3 1026 10 16.0934 0 0
7:35 am 07:35 Sunny 54 12 50 10 88 88 N 6 9 30.3 1026 10 16.0934 0 0
7:55 am 07:55 Sunny 55 13 50 10 82 82 N 3 6 30.3 1026 10 16.0934 0 0
8:15 am 08:15 Sunny 57 14 50 10 77 77 N 3 6 30.3 1026 10 16.0934 0 0
8:35 am 08:35 Sunny 59 15 50 10 72 72 NNE 3 6 30.3 1026 10 16.0934 0 0
8:55 am 08:55 Sunny 63 17 48 9 59 59 ENE 5 7 30.3 1026 10 16.0934 0 0
9:15 am 09:15 Sunny 64 18 48 9 56 56 E 5 7 30.3 1026 10 16.0934 0 0
9:35 am 09:35 Sunny 64 18 48 9 56 56 ESE 5 7 30.3 1026 10 16.0934 0 0
9:55 am 09:55 Sunny 68 20 50 10 53 53 ESE 5 7 30.3 1026 10 16.0934 0 0
10:15 am 10:15 Sunny 68 20 48 9 49 49 ESE 5 7 30.27 1025 10 16.0934 0 0
10:35 am 10:35 Sunny 70 21 46 8 43 43 ENE 3 6 30.27 1025 10 16.0934 0 0
10:55 am 10:55 Sunny 70 21 46 8 43 43 E 5 7 30.3 1026 10 16.0934 0 0
11:15 am 11:15 Sunny 72 22 46 8 41 41 SSE 6 9 30.3 1026 10 16.0934 0 0
11:35 am 11:35 Sunny 73 23 46 8 38 38 Calm 30.3 1026 10 16.0934 0 0
11:55 am 11:55 Sunny 73 23 46 8 38 38 Calm 30.3 1026 10 16.0934 0 0
12:15 pm 12:15 Partly Cloudy 73 23 45 7 36 36 ESE 8 13 30.27 1025 10 16.0934 0 0
12:35 pm 12:35 Sunny 73 23 45 7 36 36 S 5 7 30.27 1025 10 16.0934 0 0
12:55 pm 12:55 Sunny 73 23 45 7 36 36 Calm 30.27 1025 10 16.0934 0 0
1:15 pm 13:15 Partly Cloudy 73 23 45 7 36 36 SSE 7 11 30.27 1025 10 16.0934 0 0
1:35 pm 13:35 Mostly Cloudy 77 25 45 7 32 32 SSE 7 11 30.27 1025 10 16.0934 0 0
1:55 pm 13:55 Partly Cloudy 77 25 45 7 32 32 SSW 3 6 30.24 1024 10 16.0934 0 0
2:15 pm 14:15 Sunny 77 25 45 7 32 32 NNW 6 9 30.24 1024 10 16.0934 0 0
2:35 pm 14:35 Sunny 77 25 45 7 32 32 S 10 17 30.24 1024 10 16.0934 0 0
2:55 pm 14:55 Partly Cloudy 79 26 45 7 30 30 S 3 6 30.24 1024 10 16.0934 0 0
3:15 pm 15:15 Sunny 77 25 46 8 34 34 SSW 13 20 30.21 1023 10 16.0934 0 0
3:35 pm 15:35 Partly Cloudy 77 25 46 8 34 34 S 3 6 30.21 1023 10 16.0934 0 0
3:55 pm 15:55 Partly Cloudy 77 25 46 8 34 34 SSW 6 9 30.21 1023 10 16.0934 0 0
4:15 pm 16:15 Sunny 77 25 46 8 34 34 S 9 15 30.21 1023 10 16.0934 0 0
4:35 pm 16:35 Sunny 77 25 45 7 32 32 SSE 8 13 30.21 1023 10 16.0934 0 0
4:55 pm 16:55 Sunny 77 25 46 8 34 34 S 10 17 30.21 1023 10 16.0934 0 0
5:15 pm 17:15 Sunny 77 25 48 9 36 36 S 8 13 30.18 1022 10 16.0934 0 0
5:35 pm 17:35 Sunny 77 25 46 8 34 34 S 9 15 30.18 1022 10 16.0934 0 0
5:55 pm 17:55 Sunny 77 25 46 8 34 34 S 8 13 30.18 1022 10 16.0934 0 0
6:15 pm 18:15 Sunny 75 24 46 8 36 36 S 9 15 30.18 1022 10 16.0934 0 0
6:35 pm 18:35 Sunny 73 23 48 9 41 41 S 9 15 30.18 1022 10 16.0934 0 0
6:55 pm 18:55 Sunny 73 23 48 9 41 41 S 12 19 30.18 1022 10 16.0934 0 0
7:15 pm 19:15 Sunny 72 22 50 10 47 47 SSE 7 11 30.18 1022 10 16.0934 0 0
7:35 pm 19:35 Sunny 72 22 50 10 47 47 SSE 7 11 30.18 1022 10 16.0934 0 0
7:55 pm 19:55 Sunny 72 22 50 10 47 47 SSE 10 17 30.18 1022 10 16.0934 0 0
8:15 pm 20:15 Sunny 72 22 48 9 44 44 SSE 8 13 30.18 1022 10 16.0934 0 0
8:35 pm 20:35 Clear 70 21 48 9 46 46 SSE 8 13 30.18 1022 10 16.0934 0 0
8:55 pm 20:55 Clear 70 21 48 9 46 46 SSE 5 7 30.18 1022 10 16.0934 0 0
9:15 pm 21:15 Clear 70 21 48 9 46 46 SSE 5 7 30.18 1022 10 16.0934 0 0
9:35 pm 21:35 Clear 70 21 46 8 43 43 SSE 7 11 30.18 1022 10 16.0934 0 0
9:55 pm 21:55 Clear 70 21 46 8 43 43 SSE 8 13 30.18 1022 10 16.0934 0 0
10:15 pm 22:15 Clear 68 20 46 8 46 46 SSE 7 11 30.18 1022 10 16.0934 0 0
10:35 pm 22:35 Clear 68 20 46 8 46 46 SSE 9 15 30.18 1022 10 16.0934 0 0
10:55 pm 22:55 Clear 68 20 46 8 46 46 SSE 10 17 30.18 1022 10 16.0934 0 0
11:15 pm 23:15 Clear 68 20 48 9 49 49 SSE 10 17 30.18 1022 10 16.0934 0 0
11:35 pm 23:35 Clear 66 19 50 10 56 56 SSE 10 17 30.15 1021 10 16.0934 0 0
11:55 pm 23:55 Clear 64 18 50 10 60 60 SSE 8 13 30.15 1021 10 16.0934 0 0

Powered by AerisWeather